ELY5107 LLBG-UGTB

Flight info

Callsign ELY5107
Flight time 2h 38m
Altitude 34000
Route SUVAS N128 TEZAK L324 SAFTA DCT TOMBI UA16 AYT UW77 HALIL/N0445F350 UT54 SIV UW706 TBN UN61 NOLGA N61 LAGAS
Aircraft B738/M-SDE2E3FGHIJ1LORVWXY/LB1

Departure

Time 2026-04-17 09:06
Airport Ben Gurion International Airport (LLBG)

Arrival

Time 2026-04-17 11:44
Airport Tbilisi International Airport (UGTB)
Time Latitude Longitude Altitude Speed Heading
2026-04-17 08:33 32.00306 34.87503 118 ft 0 kts 344°
2026-04-17 08:43 32.00305 34.87503 119 ft 0 kts 344°
2026-04-17 08:53 32.00303 34.87504 119 ft 3 kts 344°
2026-04-17 08:53 32.00277 34.87513 116 ft 4 kts 342°
2026-04-17 08:53 32.00252 34.87524 115 ft 4 kts 329°
2026-04-17 08:53 32.00232 34.87543 114 ft 4 kts 307°
2026-04-17 08:54 32.00218 34.87570 115 ft 4 kts 300°
2026-04-17 08:54 32.00204 34.87590 117 ft 3 kts 326°
2026-04-17 08:54 32.00181 34.87606 116 ft 4 kts 342°
2026-04-17 08:54 32.00157 34.87608 116 ft 4 kts 25°
2026-04-17 08:55 32.00135 34.87594 115 ft 4 kts 31°
2026-04-17 08:55 32.00112 34.87577 116 ft 4 kts 32°
2026-04-17 08:55 32.00105 34.87572 117 ft 1 kts 31°
2026-04-17 08:58 32.00112 34.87576 116 ft 4 kts 31°
2026-04-17 08:59 32.00158 34.87611 116 ft 12 kts 32°
2026-04-17 08:59 32.00247 34.87675 115 ft 16 kts 31°
2026-04-17 08:59 32.00345 34.87744 117 ft 19 kts 31°
2026-04-17 08:59 32.00468 34.87831 116 ft 21 kts 31°
2026-04-17 09:00 32.00591 34.87918 119 ft 21 kts 31°
2026-04-17 09:00 32.00728 34.88016 117 ft 23 kts 31°
2026-04-17 09:00 32.00864 34.88114 117 ft 23 kts 31°
2026-04-17 09:00 32.01002 34.88218 116 ft 27 kts 32°
2026-04-17 09:01 32.01164 34.88334 118 ft 27 kts 31°
2026-04-17 09:01 32.01311 34.88455 117 ft 25 kts 42°
2026-04-17 09:01 32.01416 34.88610 117 ft 23 kts 56°
2026-04-17 09:01 32.01482 34.88781 118 ft 23 kts 72°
2026-04-17 09:02 32.01514 34.88959 117 ft 22 kts 79°
2026-04-17 09:02 32.01534 34.89092 117 ft 12 kts 79°
2026-04-17 09:02 32.01576 34.89163 118 ft 9 kts 17°
2026-04-17 09:02 32.01632 34.89153 117 ft 6 kts 350°
2026-04-17 09:03 32.01673 34.89145 115 ft 6 kts 350°
2026-04-17 09:03 32.01722 34.89134 115 ft 9 kts 348°
2026-04-17 09:03 32.01743 34.89077 118 ft 8 kts 259°
2026-04-17 09:03 32.01742 34.89075 118 ft 0 kts 259°
2026-04-17 09:05 32.01736 34.89035 119 ft 25 kts 259°
2026-04-17 09:05 32.01664 34.88562 119 ft 92 kts 260°
2026-04-17 09:06 32.01516 34.87580 116 ft 149 kts 260°
2026-04-17 09:06 32.01333 34.86299 629 ft 161 kts 261°
2026-04-17 09:06 32.01131 34.84978 1321 ft 162 kts 256°
2026-04-17 09:06 32.00887 34.83719 2131 ft 156 kts 253°
2026-04-17 09:07 32.00623 34.82419 2638 ft 175 kts 254°
2026-04-17 09:07 32.00325 34.80994 3241 ft 180 kts 252°
2026-04-17 09:07 32.00017 34.79531 3844 ft 191 kts 249°
2026-04-17 09:07 31.99675 34.77949 4289 ft 207 kts 250°
2026-04-17 09:08 31.99312 34.76200 4450 ft 230 kts 253°
2026-04-17 09:08 31.99245 34.74242 4803 ft 253 kts 277°
2026-04-17 09:08 31.99863 34.72253 5423 ft 265 kts 288°
2026-04-17 09:08 32.00585 34.70178 5858 ft 279 kts 286°
2026-04-17 09:09 32.01279 34.68019 6485 ft 285 kts 285°
2026-04-17 09:09 32.01969 34.65821 7181 ft 287 kts 285°
2026-04-17 09:09 32.02658 34.63596 7744 ft 290 kts 283°
2026-04-17 09:09 32.03235 34.61321 8356 ft 292 kts 280°
2026-04-17 09:10 32.04261 34.56646 9770 ft 297 kts 279°
2026-04-17 09:10 32.04774 34.54277 10392 ft 303 kts 279°
2026-04-17 09:10 32.05312 34.51791 10560 ft 324 kts 279°
2026-04-17 09:11 32.05890 34.49133 10734 ft 345 kts 279°
2026-04-17 09:11 32.06507 34.46325 11025 ft 360 kts 279°
2026-04-17 09:11 32.07144 34.43460 11614 ft 363 kts 279°
2026-04-17 09:11 32.07787 34.40584 12365 ft 362 kts 279°
2026-04-17 09:12 32.08427 34.37724 13143 ft 360 kts 279°
2026-04-17 09:12 32.09065 34.34866 13808 ft 361 kts 279°
2026-04-17 09:12 32.09487 34.32964 14175 ft 363 kts 279°
2026-04-17 09:12 32.10128 34.30067 14688 ft 367 kts 279°
2026-04-17 09:13 32.10776 34.27135 15256 ft 370 kts 279°
2026-04-17 09:13 32.11429 34.24184 15830 ft 373 kts 279°
2026-04-17 09:13 32.12084 34.21214 16406 ft 376 kts 279°
2026-04-17 09:13 32.12745 34.18217 16940 ft 379 kts 279°
2026-04-17 09:14 32.13411 34.15194 17473 ft 383 kts 279°
2026-04-17 09:14 32.14082 34.12142 18027 ft 386 kts 279°
2026-04-17 09:14 32.14759 34.09066 18540 ft 387 kts 278°
2026-04-17 09:14 32.15435 34.05989 19101 ft 388 kts 278°
2026-04-17 09:15 32.16110 34.02916 19656 ft 388 kts 278°
2026-04-17 09:15 32.16951 33.99868 20169 ft 395 kts 287°
2026-04-17 09:15 32.18224 33.96963 20646 ft 404 kts 296°
2026-04-17 09:15 32.19842 33.94213 21155 ft 409 kts 298°
2026-04-17 09:16 32.21508 33.91482 21556 ft 412 kts 298°
2026-04-17 09:16 32.23175 33.88769 21989 ft 414 kts 298°
2026-04-17 09:16 32.24868 33.86009 22484 ft 415 kts 298°
2026-04-17 09:16 32.26556 33.83242 22963 ft 416 kts 298°
2026-04-17 09:17 32.28248 33.80452 23352 ft 419 kts 298°
2026-04-17 09:17 32.29944 33.77639 23684 ft 421 kts 297°
2026-04-17 09:17 32.31641 33.74820 24075 ft 421 kts 297°
2026-04-17 09:17 32.33338 33.71997 24468 ft 421 kts 297°
2026-04-17 09:18 32.35033 33.69172 24833 ft 422 kts 297°
2026-04-17 09:18 32.36736 33.66329 25175 ft 424 kts 297°
2026-04-17 09:18 32.38443 33.63475 25495 ft 426 kts 297°
2026-04-17 09:18 32.40154 33.60613 25848 ft 427 kts 297°
2026-04-17 09:19 32.41870 33.57744 26202 ft 427 kts 297°
2026-04-17 09:19 32.43586 33.54872 26531 ft 428 kts 297°
2026-04-17 09:19 32.45310 33.51983 26837 ft 430 kts 297°
2026-04-17 09:19 32.47032 33.49097 27151 ft 431 kts 297°
2026-04-17 09:20 32.48760 33.46196 27454 ft 432 kts 296°
2026-04-17 09:20 32.50495 33.43283 27756 ft 433 kts 296°
2026-04-17 09:20 32.52232 33.40365 28049 ft 434 kts 296°
2026-04-17 09:20 32.53969 33.37442 28342 ft 435 kts 296°
2026-04-17 09:21 32.55711 33.34513 28729 ft 433 kts 296°
2026-04-17 09:21 32.57438 33.31609 29222 ft 429 kts 296°
2026-04-17 09:21 32.59150 33.28730 29730 ft 425 kts 296°
2026-04-17 09:21 32.60848 33.25871 30113 ft 423 kts 296°
2026-04-17 09:22 32.62536 33.23020 30420 ft 422 kts 296°
2026-04-17 09:22 32.64221 33.20171 30705 ft 421 kts 296°
2026-04-17 09:22 32.65902 33.17328 31042 ft 419 kts 296°
2026-04-17 09:22 32.67571 33.14504 31383 ft 418 kts 295°
2026-04-17 09:23 32.69237 33.11682 31657 ft 417 kts 295°
2026-04-17 09:23 32.70898 33.08866 31940 ft 416 kts 295°
2026-04-17 09:23 32.72556 33.06053 32287 ft 414 kts 295°
2026-04-17 09:23 32.74205 33.03254 32574 ft 413 kts 295°
2026-04-17 09:24 32.75851 33.00460 32860 ft 412 kts 295°
2026-04-17 09:24 32.77492 32.97670 33120 ft 411 kts 295°
2026-04-17 09:24 32.79127 32.94887 33391 ft 410 kts 295°
2026-04-17 09:24 32.80754 32.92118 33683 ft 408 kts 295°
2026-04-17 09:25 32.84026 32.86533 33746 ft 415 kts 295°
2026-04-17 09:25 32.87347 32.80856 33730 ft 420 kts 295°
2026-04-17 09:26 32.90691 32.75142 33728 ft 422 kts 295°
2026-04-17 09:26 32.94050 32.69397 33726 ft 423 kts 295°
2026-04-17 09:27 32.97407 32.63645 33721 ft 422 kts 295°
2026-04-17 09:27 33.00752 32.57902 33726 ft 422 kts 294°
2026-04-17 09:28 33.04089 32.52165 33721 ft 421 kts 294°
2026-04-17 09:28 33.07414 32.46438 33713 ft 420 kts 294°
2026-04-17 09:29 33.10708 32.40755 33718 ft 418 kts 294°
2026-04-17 09:29 33.14009 32.35051 33708 ft 417 kts 294°
2026-04-17 09:30 33.17307 32.29341 33724 ft 418 kts 294°
2026-04-17 09:30 33.20623 32.23586 33724 ft 424 kts 294°
2026-04-17 09:31 33.23988 32.17737 33714 ft 429 kts 294°
2026-04-17 09:31 33.27381 32.11843 33709 ft 431 kts 295°
2026-04-17 09:32 33.30786 32.05918 33727 ft 433 kts 295°
2026-04-17 09:32 33.34196 31.99970 33706 ft 434 kts 295°
2026-04-17 09:33 33.37614 31.93998 33700 ft 435 kts 295°
2026-04-17 09:33 33.41036 31.88011 33697 ft 436 kts 295°
2026-04-17 09:34 33.44530 31.82076 33684 ft 444 kts 302°
2026-04-17 09:34 33.46836 31.79534 33740 ft 459 kts 314°
2026-04-17 09:34 33.49593 31.77486 33688 ft 474 kts 326°
2026-04-17 09:35 33.52716 31.76087 33713 ft 485 kts 334°
2026-04-17 09:35 33.55966 31.74949 33707 ft 487 kts 336°
2026-04-17 09:35 33.62495 31.72751 33685 ft 487 kts 336°
2026-04-17 09:36 33.69003 31.70451 33687 ft 487 kts 335°
2026-04-17 09:36 33.75488 31.68094 33683 ft 488 kts 335°
2026-04-17 09:37 33.81991 31.65732 33685 ft 488 kts 336°
2026-04-17 09:37 33.88500 31.63360 33689 ft 489 kts 336°
2026-04-17 09:38 33.95010 31.60976 33684 ft 489 kts 336°
2026-04-17 09:38 34.01525 31.58589 33680 ft 490 kts 336°
2026-04-17 09:39 34.08040 31.56199 33678 ft 490 kts 336°
2026-04-17 09:39 34.14518 31.53819 33678 ft 490 kts 336°
2026-04-17 09:40 34.21039 31.51420 33703 ft 490 kts 336°
2026-04-17 09:40 34.27579 31.49009 33687 ft 491 kts 336°
2026-04-17 09:41 34.34120 31.46592 33679 ft 492 kts 338°
2026-04-17 09:41 34.40669 31.44171 33696 ft 493 kts 338°
2026-04-17 09:42 34.47234 31.41739 33682 ft 494 kts 338°
2026-04-17 09:42 34.53804 31.39302 33689 ft 494 kts 338°
2026-04-17 09:43 34.60387 31.36854 33680 ft 495 kts 339°
2026-04-17 09:43 34.66978 31.34402 33697 ft 495 kts 339°
2026-04-17 09:44 34.73575 31.31942 33683 ft 496 kts 339°
2026-04-17 09:44 34.80169 31.29479 33678 ft 496 kts 339°
2026-04-17 09:45 34.86769 31.27010 33692 ft 496 kts 340°
2026-04-17 09:45 34.93325 31.24553 33683 ft 496 kts 340°
2026-04-17 09:46 34.99922 31.22078 33701 ft 496 kts 340°
2026-04-17 09:46 35.06517 31.19597 33687 ft 496 kts 341°
2026-04-17 09:47 35.13120 31.17109 33700 ft 496 kts 341°
2026-04-17 09:47 35.19702 31.14626 33700 ft 495 kts 341°
2026-04-17 09:48 35.26287 31.12138 33703 ft 495 kts 341°
2026-04-17 09:48 35.32853 31.09652 33718 ft 494 kts 342°
2026-04-17 09:49 35.39429 31.07158 33718 ft 494 kts 342°
2026-04-17 09:49 35.45844 31.04721 33729 ft 495 kts 342°
2026-04-17 09:50 35.52421 31.02218 33734 ft 495 kts 342°
2026-04-17 09:50 35.59002 30.99710 33746 ft 495 kts 343°
2026-04-17 09:51 35.65584 30.97196 33740 ft 495 kts 343°
2026-04-17 09:51 35.72119 30.94696 33758 ft 495 kts 344°
2026-04-17 09:52 35.78727 30.92164 33730 ft 493 kts 344°
2026-04-17 09:52 35.85260 30.89657 33741 ft 491 kts 344°
2026-04-17 09:53 35.91776 30.87151 33754 ft 490 kts 344°
2026-04-17 09:53 35.98232 30.84665 33758 ft 489 kts 344°
2026-04-17 09:54 36.04766 30.82433 33750 ft 486 kts 353°
2026-04-17 09:54 36.11467 30.82009 33772 ft 483 kts
2026-04-17 09:55 36.18238 30.81914 33954 ft 488 kts
2026-04-17 09:55 36.21636 30.81837 34157 ft 488 kts
2026-04-17 09:55 36.25024 30.81740 34354 ft 489 kts
2026-04-17 09:56 36.31900 30.81517 34484 ft 497 kts
2026-04-17 09:56 36.35365 30.81401 34702 ft 497 kts
2026-04-17 09:56 36.38821 30.81288 34993 ft 497 kts
2026-04-17 09:57 36.42280 30.81177 35214 ft 497 kts
2026-04-17 09:57 36.45742 30.81059 35380 ft 499 kts 360°
2026-04-17 09:57 36.49213 30.80936 35552 ft 499 kts 359°
2026-04-17 09:57 36.52681 30.80811 35735 ft 499 kts 359°
2026-04-17 09:58 36.59643 30.80560 35779 ft 502 kts 359°
2026-04-17 09:58 36.66618 30.80310 35803 ft 500 kts 359°
2026-04-17 09:59 36.73562 30.80063 35787 ft 499 kts 359°
2026-04-17 09:59 36.80493 30.79815 35796 ft 497 kts 359°
2026-04-17 10:00 36.87394 30.79601 35797 ft 495 kts
2026-04-17 10:00 36.94123 30.81075 35801 ft 490 kts 21°
2026-04-17 10:01 36.99233 30.83981 35820 ft 483 kts 31°
2026-04-17 10:01 37.05107 30.88049 35805 ft 483 kts 32°
2026-04-17 10:02 37.10993 30.92096 35813 ft 483 kts 32°
2026-04-17 10:02 37.16909 30.96101 35830 ft 484 kts 31°
2026-04-17 10:03 37.22843 31.00108 35842 ft 485 kts 31°
2026-04-17 10:03 37.28803 31.04145 35851 ft 487 kts 31°
2026-04-17 10:04 37.34785 31.08204 35874 ft 489 kts 31°
2026-04-17 10:04 37.40872 31.12063 35883 ft 491 kts 27°
2026-04-17 10:05 37.47103 31.15676 35884 ft 494 kts 27°
2026-04-17 10:05 37.53357 31.19282 35906 ft 495 kts 27°
2026-04-17 10:06 37.59607 31.22981 35894 ft 496 kts 27°
2026-04-17 10:06 37.65860 31.26709 35878 ft 498 kts 27°
2026-04-17 10:07 37.72074 31.30410 35906 ft 497 kts 27°
2026-04-17 10:07 37.78348 31.34152 35897 ft 498 kts 26°
2026-04-17 10:08 37.84610 31.37892 35896 ft 498 kts 26°
2026-04-17 10:08 37.90864 31.41635 35898 ft 497 kts 26°
2026-04-17 10:09 37.97098 31.45374 35918 ft 495 kts 26°
2026-04-17 10:09 38.03317 31.49110 35914 ft 493 kts 26°
2026-04-17 10:10 38.09505 31.52835 35893 ft 492 kts 26°
2026-04-17 10:11 38.18712 31.58518 35901 ft 489 kts 26°
2026-04-17 10:11 38.24786 31.62373 35902 ft 488 kts 27°
2026-04-17 10:12 38.30863 31.66227 35905 ft 488 kts 26°
2026-04-17 10:12 38.36938 31.70074 35911 ft 488 kts 26°
2026-04-17 10:13 38.43023 31.73928 35903 ft 489 kts 26°
2026-04-17 10:13 38.49125 31.77801 35905 ft 491 kts 27°
2026-04-17 10:14 38.55241 31.81691 35898 ft 492 kts 26°
2026-04-17 10:14 38.61365 31.85593 35905 ft 492 kts 27°
2026-04-17 10:15 38.67456 31.89482 35900 ft 492 kts 27°
2026-04-17 10:15 38.73626 31.93430 35895 ft 492 kts 27°
2026-04-17 10:16 38.79705 31.97326 35908 ft 491 kts 27°
2026-04-17 10:16 38.85811 32.01247 35886 ft 490 kts 27°
2026-04-17 10:17 38.91883 32.05154 35883 ft 487 kts 27°
2026-04-17 10:17 38.97930 32.09053 35886 ft 485 kts 27°
2026-04-17 10:18 39.03941 32.12936 35884 ft 482 kts 27°
2026-04-17 10:18 39.09916 32.16803 35887 ft 480 kts 27°
2026-04-17 10:19 39.15864 32.20659 35891 ft 477 kts 27°
2026-04-17 10:19 39.21783 32.24505 35890 ft 475 kts 27°
2026-04-17 10:20 39.27681 32.28345 35891 ft 474 kts 27°
2026-04-17 10:20 39.33564 32.32180 35900 ft 474 kts 27°
2026-04-17 10:20 39.36411 32.34302 35884 ft 473 kts 38°
2026-04-17 10:21 39.38797 32.37203 35912 ft 469 kts 52°
2026-04-17 10:21 39.40642 32.40665 35910 ft 468 kts 65°
2026-04-17 10:21 39.41889 32.44540 35970 ft 468 kts 72°
2026-04-17 10:22 39.43936 32.52557 36177 ft 469 kts 81°
2026-04-17 10:22 39.44435 32.56705 36349 ft 466 kts 85°
2026-04-17 10:22 39.44841 32.60859 36553 ft 465 kts 85°
2026-04-17 10:22 39.45243 32.65011 36680 ft 466 kts 85°
2026-04-17 10:23 39.45658 32.69173 36760 ft 468 kts 85°
2026-04-17 10:23 39.46089 32.73339 36888 ft 467 kts 84°
2026-04-17 10:23 39.46524 32.77462 36933 ft 468 kts 84°
2026-04-17 10:24 39.47415 32.85866 36948 ft 469 kts 85°
2026-04-17 10:24 39.48292 32.94220 36928 ft 468 kts 84°
2026-04-17 10:25 39.49160 33.02504 36949 ft 467 kts 84°
2026-04-17 10:25 39.50027 33.10837 36944 ft 467 kts 84°
2026-04-17 10:26 39.50889 33.19167 36925 ft 467 kts 84°
2026-04-17 10:26 39.51744 33.27498 36944 ft 467 kts 84°
2026-04-17 10:27 39.52597 33.35856 36944 ft 468 kts 84°
2026-04-17 10:27 39.53447 33.44222 36946 ft 469 kts 84°
2026-04-17 10:28 39.54293 33.52619 36948 ft 471 kts 85°
2026-04-17 10:28 39.55136 33.61038 36945 ft 472 kts 85°
2026-04-17 10:29 39.55974 33.69479 36938 ft 473 kts 85°
2026-04-17 10:29 39.56809 33.77943 36945 ft 473 kts 85°
2026-04-17 10:30 39.57640 33.86416 36942 ft 474 kts 85°
2026-04-17 10:30 39.58465 33.94898 36946 ft 475 kts 85°
2026-04-17 10:31 39.59285 34.03395 36934 ft 475 kts 85°
2026-04-17 10:31 39.60099 34.11901 36937 ft 476 kts 85°
2026-04-17 10:32 39.60909 34.20427 36942 ft 476 kts 85°
2026-04-17 10:32 39.61713 34.28957 36924 ft 477 kts 85°
2026-04-17 10:33 39.62506 34.37425 36936 ft 476 kts 85°
2026-04-17 10:33 39.63298 34.45955 36925 ft 476 kts 85°
2026-04-17 10:34 39.64086 34.54468 36934 ft 476 kts 85°
2026-04-17 10:34 39.64870 34.63002 36936 ft 476 kts 85°
2026-04-17 10:35 39.65635 34.71405 36920 ft 476 kts 85°
2026-04-17 10:35 39.66395 34.79816 36927 ft 476 kts 85°
2026-04-17 10:36 39.67159 34.88343 36923 ft 476 kts 85°
2026-04-17 10:36 39.67917 34.96880 36928 ft 476 kts 85°
2026-04-17 10:37 39.68670 35.05427 36937 ft 477 kts 85°
2026-04-17 10:37 39.69416 35.13982 36915 ft 477 kts 85°
2026-04-17 10:38 39.70158 35.22550 36928 ft 477 kts 85°
2026-04-17 10:38 39.70894 35.31125 36925 ft 478 kts 85°
2026-04-17 10:39 39.71625 35.39718 36930 ft 479 kts 85°
2026-04-17 10:39 39.72349 35.48313 36928 ft 479 kts 85°
2026-04-17 10:40 39.73070 35.56931 36925 ft 480 kts 85°
2026-04-17 10:40 39.73777 35.65554 36920 ft 480 kts 85°
2026-04-17 10:41 39.74467 35.74126 36921 ft 480 kts 85°
2026-04-17 10:41 39.75157 35.82754 36922 ft 481 kts 85°
2026-04-17 10:42 39.75843 35.91402 36917 ft 481 kts 85°
2026-04-17 10:42 39.76522 36.00042 36924 ft 481 kts 85°
2026-04-17 10:43 39.77194 36.08690 36917 ft 481 kts 85°
2026-04-17 10:43 39.77861 36.17329 36918 ft 480 kts 85°
2026-04-17 10:44 39.78473 36.25977 36918 ft 480 kts 89°
2026-04-17 10:44 39.78603 36.34651 36926 ft 479 kts 91°
2026-04-17 10:45 39.78609 36.43309 36926 ft 479 kts 91°
2026-04-17 10:45 39.78652 36.51977 36921 ft 479 kts 90°
2026-04-17 10:46 39.78719 36.60644 36984 ft 479 kts 90°
2026-04-17 10:46 39.78784 36.69295 37015 ft 479 kts 90°
2026-04-17 10:47 39.78839 36.77948 37043 ft 479 kts 90°
2026-04-17 10:47 39.79133 36.86592 37034 ft 480 kts 79°
2026-04-17 10:48 39.81139 36.94758 37045 ft 478 kts 61°
2026-04-17 10:48 39.84411 37.02277 37048 ft 477 kts 58°
2026-04-17 10:49 39.87743 37.09742 37024 ft 477 kts 59°
2026-04-17 10:49 39.91027 37.17256 37003 ft 478 kts 59°
2026-04-17 10:50 39.94285 37.24810 36977 ft 478 kts 59°
2026-04-17 10:50 39.97532 37.32366 36959 ft 478 kts 59°
2026-04-17 10:51 40.00775 37.39927 36972 ft 477 kts 59°
2026-04-17 10:51 40.03462 37.46201 36963 ft 477 kts 59°
2026-04-17 10:52 40.06692 37.53760 36961 ft 476 kts 59°
2026-04-17 10:52 40.09918 37.61310 36967 ft 475 kts 59°
2026-04-17 10:53 40.13153 37.68838 36959 ft 474 kts 59°
2026-04-17 10:53 40.16380 37.76361 36963 ft 474 kts 59°
2026-04-17 10:54 40.19593 37.83879 36967 ft 474 kts 59°
2026-04-17 10:54 40.22806 37.91420 36948 ft 474 kts 59°
2026-04-17 10:55 40.26008 37.98953 36981 ft 474 kts 59°
2026-04-17 10:55 40.29214 38.06517 36977 ft 476 kts 59°
2026-04-17 10:56 40.32428 38.14112 36995 ft 477 kts 59°
2026-04-17 10:56 40.35565 38.21795 37004 ft 479 kts 60°
2026-04-17 10:57 40.38662 38.29527 37009 ft 479 kts 59°
2026-04-17 10:57 40.41911 38.37133 36989 ft 481 kts 58°
2026-04-17 10:58 40.45239 38.44819 36995 ft 482 kts 58°
2026-04-17 10:58 40.48515 38.52487 37008 ft 481 kts 58°
2026-04-17 10:59 40.51745 38.60125 37011 ft 481 kts 59°
2026-04-17 10:59 40.54903 38.67867 37011 ft 480 kts 59°
2026-04-17 11:00 40.58038 38.75609 37024 ft 479 kts 59°
2026-04-17 11:00 40.61177 38.83338 37010 ft 478 kts 59°
2026-04-17 11:01 40.64296 38.91024 37041 ft 475 kts 59°
2026-04-17 11:01 40.67395 38.98710 37020 ft 475 kts 59°
2026-04-17 11:02 40.70485 39.06405 37010 ft 474 kts 59°
2026-04-17 11:02 40.73562 39.14084 37019 ft 474 kts 59°
2026-04-17 11:03 40.76641 39.21785 37017 ft 475 kts 59°
2026-04-17 11:03 40.79717 39.29481 37023 ft 474 kts 59°
2026-04-17 11:04 40.82779 39.37190 37014 ft 475 kts 59°
2026-04-17 11:04 40.85842 39.44917 37054 ft 475 kts 59°
2026-04-17 11:05 40.88899 39.52645 37057 ft 474 kts 59°
2026-04-17 11:05 40.91940 39.60352 37080 ft 472 kts 59°
2026-04-17 11:06 40.94969 39.68048 37083 ft 471 kts 59°
2026-04-17 11:06 40.97967 39.75682 37083 ft 470 kts 59°
2026-04-17 11:07 41.00279 39.83781 37073 ft 474 kts 76°
2026-04-17 11:07 41.01536 39.92407 37075 ft 474 kts 77°
2026-04-17 11:08 41.02735 40.00919 37067 ft 473 kts 77°
2026-04-17 11:08 41.03979 40.09480 37069 ft 473 kts 76°
2026-04-17 11:09 41.05245 40.18050 37059 ft 474 kts 76°
2026-04-17 11:09 41.06511 40.26611 37058 ft 474 kts 76°
2026-04-17 11:10 41.08400 40.39497 37060 ft 475 kts 76°
2026-04-17 11:10 41.09653 40.48111 37058 ft 476 kts 76°
2026-04-17 11:11 41.10900 40.56734 37054 ft 477 kts 77°
2026-04-17 11:11 41.12144 40.65389 37052 ft 478 kts 77°
2026-04-17 11:12 41.13383 40.74048 37041 ft 478 kts 76°
2026-04-17 11:12 41.14617 40.82730 37055 ft 480 kts 76°
2026-04-17 11:13 41.15847 40.91427 37056 ft 480 kts 76°
2026-04-17 11:13 41.17074 41.00150 37047 ft 481 kts 76°
2026-04-17 11:14 41.18294 41.08881 37055 ft 481 kts 77°
2026-04-17 11:14 41.19506 41.17606 37080 ft 481 kts 76°
2026-04-17 11:15 41.20714 41.26344 37072 ft 481 kts 76°
2026-04-17 11:15 41.21916 41.35087 37056 ft 481 kts 76°
2026-04-17 11:16 41.23102 41.43767 37070 ft 481 kts 76°
2026-04-17 11:16 41.24284 41.52496 37037 ft 480 kts 76°
2026-04-17 11:17 41.25464 41.61236 37051 ft 481 kts 76°
2026-04-17 11:17 41.26638 41.69979 37049 ft 481 kts 76°
2026-04-17 11:18 41.27806 41.78736 37041 ft 481 kts 76°
2026-04-17 11:18 41.28967 41.87494 37067 ft 481 kts 76°
2026-04-17 11:19 41.30123 41.96263 37090 ft 483 kts 76°
2026-04-17 11:19 41.31265 42.05089 36715 ft 486 kts 76°
2026-04-17 11:20 41.31832 42.09511 36410 ft 481 kts 76°
2026-04-17 11:20 41.32388 42.13879 35971 ft 478 kts 76°
2026-04-17 11:20 41.32939 42.18213 35541 ft 473 kts 76°
2026-04-17 11:20 41.33483 42.22512 35162 ft 469 kts 76°
2026-04-17 11:21 41.34022 42.26773 34757 ft 465 kts 76°
2026-04-17 11:21 41.34558 42.31009 34362 ft 463 kts 76°
2026-04-17 11:21 41.35089 42.35218 33976 ft 460 kts 76°
2026-04-17 11:21 41.35615 42.39399 33518 ft 461 kts 76°
2026-04-17 11:22 41.36154 42.43673 33106 ft 475 kts 76°
2026-04-17 11:22 41.36709 42.48072 32687 ft 487 kts 76°
2026-04-17 11:22 41.37265 42.52526 32237 ft 488 kts 76°
2026-04-17 11:22 41.37814 42.56967 31799 ft 485 kts 76°
2026-04-17 11:23 41.38356 42.61390 31372 ft 484 kts 76°
2026-04-17 11:23 41.38907 42.65857 30966 ft 493 kts 76°
2026-04-17 11:23 41.39463 42.70374 30539 ft 494 kts 76°
2026-04-17 11:23 41.40013 42.74883 30109 ft 494 kts 76°
2026-04-17 11:24 41.40562 42.79389 29606 ft 493 kts 76°
2026-04-17 11:24 41.41113 42.83917 29138 ft 500 kts 76°
2026-04-17 11:24 41.41674 42.88528 28648 ft 507 kts 77°
2026-04-17 11:24 41.42233 42.93164 28194 ft 505 kts 77°
2026-04-17 11:25 41.42785 42.97768 27709 ft 501 kts 77°
2026-04-17 11:25 41.43330 43.02323 27351 ft 494 kts 77°
2026-04-17 11:25 41.43865 43.06784 26928 ft 496 kts 77°
2026-04-17 11:25 41.44419 43.11393 26461 ft 499 kts 77°
2026-04-17 11:26 41.44956 43.15888 26015 ft 495 kts 77°
2026-04-17 11:26 41.45491 43.20389 25555 ft 489 kts 77°
2026-04-17 11:26 41.46024 43.24901 25092 ft 483 kts 78°
2026-04-17 11:26 41.46536 43.29236 24675 ft 478 kts 78°
2026-04-17 11:27 41.47049 43.33599 24224 ft 475 kts 78°
2026-04-17 11:27 41.47558 43.37939 23783 ft 472 kts 78°
2026-04-17 11:27 41.48062 43.42245 23264 ft 471 kts 78°
2026-04-17 11:27 41.48566 43.46570 22786 ft 473 kts 79°
2026-04-17 11:28 41.49069 43.50892 22329 ft 470 kts 79°
2026-04-17 11:28 41.49565 43.55188 21901 ft 466 kts 79°
2026-04-17 11:28 41.50055 43.59438 21461 ft 462 kts 79°
2026-04-17 11:28 41.50540 43.63661 21021 ft 459 kts 79°
2026-04-17 11:29 41.51019 43.67851 20571 ft 456 kts 79°
2026-04-17 11:29 41.51495 43.72021 20136 ft 453 kts 79°
2026-04-17 11:29 41.51968 43.76170 19724 ft 450 kts 79°
2026-04-17 11:29 41.52435 43.80288 19326 ft 448 kts 79°
2026-04-17 11:30 41.52899 43.84390 18898 ft 446 kts 79°
2026-04-17 11:30 41.53359 43.88476 18469 ft 445 kts 79°
2026-04-17 11:30 41.53817 43.92552 18020 ft 443 kts 79°
2026-04-17 11:30 41.54271 43.96602 17545 ft 440 kts 79°
2026-04-17 11:31 41.54720 44.00636 17100 ft 438 kts 80°
2026-04-17 11:31 41.55166 44.04641 16667 ft 435 kts 80°
2026-04-17 11:31 41.55608 44.08626 16242 ft 432 kts 80°
2026-04-17 11:31 41.56045 44.12579 15825 ft 429 kts 80°
2026-04-17 11:32 41.56479 44.16517 15408 ft 427 kts 80°
2026-04-17 11:32 41.57074 44.20359 14975 ft 419 kts 68°
2026-04-17 11:32 41.58511 44.23643 14578 ft 404 kts 48°
2026-04-17 11:32 41.60483 44.26221 14168 ft 392 kts 34°
2026-04-17 11:33 41.62698 44.28262 13755 ft 384 kts 31°
2026-04-17 11:33 41.64913 44.30212 13315 ft 378 kts 30°
2026-04-17 11:33 41.67084 44.32123 12895 ft 369 kts 30°
2026-04-17 11:33 41.69184 44.33991 12464 ft 357 kts 31°
2026-04-17 11:34 41.71218 44.35821 11979 ft 347 kts 31°
2026-04-17 11:34 41.73194 44.37603 11619 ft 337 kts 31°
2026-04-17 11:34 41.75111 44.39342 11231 ft 330 kts 31°
2026-04-17 11:34 41.76990 44.41043 10903 ft 321 kts 32°
2026-04-17 11:35 41.78814 44.42708 10545 ft 314 kts 32°
2026-04-17 11:35 41.80594 44.44331 10252 ft 306 kts 31°
2026-04-17 11:35 41.82345 44.45929 10047 ft 302 kts 31°
2026-04-17 11:35 41.84038 44.47545 9829 ft 299 kts 37°
2026-04-17 11:36 41.85514 44.49516 9507 ft 299 kts 45°
2026-04-17 11:36 41.86914 44.51577 9207 ft 297 kts 46°
2026-04-17 11:36 41.88318 44.53607 8904 ft 296 kts 45°
2026-04-17 11:36 41.89731 44.55614 8598 ft 296 kts 45°
2026-04-17 11:37 41.91090 44.57681 8279 ft 294 kts 58°
2026-04-17 11:37 41.91742 44.60213 7986 ft 284 kts 86°
2026-04-17 11:37 41.91497 44.62775 7712 ft 273 kts 110°
2026-04-17 11:37 41.90640 44.64917 7619 ft 258 kts 130°
2026-04-17 11:38 41.89453 44.66628 7536 ft 243 kts 132°
2026-04-17 11:38 41.88347 44.68264 7450 ft 230 kts 134°
2026-04-17 11:38 41.87249 44.69746 7341 ft 218 kts 136°
2026-04-17 11:38 41.86171 44.71122 7263 ft 214 kts 136°
2026-04-17 11:39 41.85060 44.72511 6977 ft 218 kts 136°
2026-04-17 11:39 41.83955 44.73887 6636 ft 215 kts 136°
2026-04-17 11:39 41.82869 44.75242 6316 ft 212 kts 137°
2026-04-17 11:39 41.81784 44.76583 5955 ft 211 kts 136°
2026-04-17 11:40 41.81080 44.77462 5729 ft 209 kts 136°
2026-04-17 11:40 41.80022 44.78779 5418 ft 206 kts 136°
2026-04-17 11:40 41.78984 44.80073 5105 ft 203 kts 136°
2026-04-17 11:40 41.77953 44.81358 4780 ft 201 kts 136°
2026-04-17 11:41 41.76929 44.82632 4469 ft 202 kts 136°
2026-04-17 11:41 41.75903 44.83897 4138 ft 197 kts 136°
2026-04-17 11:41 41.74930 44.85117 3850 ft 185 kts 136°
2026-04-17 11:41 41.74020 44.86256 3547 ft 173 kts 136°
2026-04-17 11:42 41.73175 44.87310 3278 ft 159 kts 136°
2026-04-17 11:42 41.72371 44.88312 3045 ft 161 kts 137°
2026-04-17 11:42 41.71562 44.89325 2750 ft 156 kts 139°
2026-04-17 11:42 41.70771 44.90298 2485 ft 155 kts 139°
2026-04-17 11:43 41.69986 44.91259 2233 ft 150 kts 140°
2026-04-17 11:43 41.69226 44.92215 2003 ft 149 kts 136°
2026-04-17 11:43 41.68465 44.93170 1794 ft 151 kts 137°
2026-04-17 11:43 41.67711 44.94117 1568 ft 146 kts 138°
2026-04-17 11:44 41.67025 44.94973 1524 ft 112 kts 137°
2026-04-17 11:44 41.66615 44.95488 1523 ft 60 kts 137°
2026-04-17 11:44 41.66328 44.95849 1523 ft 52 kts 137°
2026-04-17 11:44 41.66084 44.96157 1522 ft 42 kts 137°
2026-04-17 11:45 41.65897 44.96393 1518 ft 25 kts 137°
2026-04-17 11:45 41.65846 44.96532 1524 ft 16 kts 76°
2026-04-17 11:45 41.65930 44.96592 1521 ft 13 kts 343°
2026-04-17 11:45 41.66000 44.96517 1521 ft 13 kts 316°
2026-04-17 11:46 41.66065 44.96434 1525 ft 14 kts 316°
2026-04-17 11:46 41.66160 44.96328 1525 ft 22 kts 329°
2026-04-17 11:46 41.66310 44.96307 1519 ft 22 kts 11°
2026-04-17 11:46 41.66456 44.96355 1521 ft 17 kts 14°
2026-04-17 11:47 41.66469 44.96360 1522 ft 4 kts 14°
2026-04-17 11:47 41.66535 44.96382 1525 ft 14 kts 12°
2026-04-17 11:47 41.66651 44.96417 1519 ft 18 kts 16°
2026-04-17 11:47 41.66747 44.96392 1524 ft 12 kts 317°
2026-04-17 11:48 41.66809 44.96337 1521 ft 9 kts
2026-04-17 11:48 41.66848 44.96376 1522 ft 5 kts 43°
2026-04-17 11:48 41.66860 44.96391 1526 ft 2 kts 43°
2026-04-17 11:48 41.66861 44.96393 1526 ft 0 kts 43°
2026-04-17 11:50 41.66861 44.96392 1526 ft 0 kts 43°